EW3957 Weather Reports


time (UTC)temp
C
wind
direction
speed
KPH
gust
KPH
rain 1hr
cm
rain 24hr
cm
rain mn
cm
humidity
%
barometer
mb
20260505093017 11 319 0.0 8.0 0.00 0.00 0.00 61 1010.6
20260505091555 11 295 0.0 12.9 0.00 0.00 0.00 62 1010.6
20260505090002 11 36 0.0 4.8 0.00 0.00 0.00 63 1010.5
20260505084540 11 26 0.0 0.0 0.00 0.00 0.00 64 1010.4
20260505083059 11 26 0.0 0.0 0.00 0.00 0.00 63 1010.3
20260505081526 11 29 0.0 0.0 0.00 0.00 0.00 63 1010.3
20260505080105 11 355 0.0 0.0 0.00 0.00 0.00 63 1010.1
20260505074509 11 9 0.0 0.0 0.00 0.00 0.00 63 1009.9
20260505073043 12 63 0.0 0.0 0.00 0.00 0.00 64 1009.9
20260505071505 12 348 0.0 1.6 0.00 0.00 0.00 64 1009.7
20260505070034 11 44 0.0 0.0 0.00 0.00 0.00 67 1009.4
20260505064550 10 333 0.0 3.2 0.00 0.00 0.00 69 1009.2
20260505063014 10 292 0.0 0.0 0.00 0.00 0.00 73 1009.1
20260505061543 10 292 0.0 0.0 0.00 0.00 0.00 73 1009.1
20260505060109 10 292 0.0 0.0 0.00 0.00 0.00 76 1008.9
20260505054533 10 292 0.0 0.0 0.00 0.00 0.00 76 1008.8
20260505053100 10 292 0.0 0.0 0.00 0.00 0.00 76 1008.7
20260505051523 11 292 0.0 0.0 0.00 0.00 0.00 75 1008.5
20260505041605 12 292 0.0 0.0 0.00 0.00 0.00 65 1007.7
20260505040037 13 292 0.0 0.0 0.00 0.00 0.00 64 1007.5
20260505034545 13 292 0.0 0.0 0.00 0.00 0.00 62 1007.3
20260505033013 15 291 0.0 0.0 0.00 0.00 0.00 61 1007.1
20260505031544 16 291 0.0 0.0 0.00 0.00 0.00 56 1006.9
20260505030113 17 291 0.0 0.0 0.00 0.00 0.00 52 1006.9
20260505024524 18 292 0.0 0.0 0.00 0.00 0.00 47 1006.7
20260505023052 19 290 0.0 0.0 0.00 0.00 0.00 44 1006.6
20260505021519 20 355 0.0 6.4 0.00 0.00 0.00 42 1006.5
20260505020047 22 71 0.0 1.6 0.00 0.00 0.00 40 1006.4
20260505014501 23 57 0.0 8.0 0.00 0.00 0.00 38 1006.5
20260505013031 23 309 0.0 0.0 0.00 0.00 0.00 39 1006.5
20260505011608 24 333 0.0 6.4 0.00 0.00 0.00 34 1006.5
20260505010027 24 36 0.0 1.6 0.00 0.00 0.00 37 1006.6
20260505004544 24 336 0.0 1.6 0.00 0.00 0.00 37 1006.6
20260505003009 25 13 0.0 4.8 0.00 0.00 0.00 35 1006.6
20260505001538 25 192 0.0 4.8 0.00 0.00 0.00 34 1006.6
20260505000117 25 51 0.0 4.8 0.00 0.00 0.00 33 1006.6
20260504234523 25 144 0.0 1.6 0.00 0.00 0.00 34 1006.7
20260504233106 25 327 0.0 6.4 0.00 0.00 0.00 37 1006.8
20260504231516 25 57 0.0 4.8 0.00 0.00 0.00 32 1006.8
20260504230046 25 340 0.0 6.4 0.00 0.00 0.00 31 1006.9
20260504224614 25 5 0.0 0.0 0.00 0.00 0.00 33 1006.9
20260504223035 25 100 0.0 8.0 0.00 0.00 0.00 34 1007.0
20260504221555 25 44 0.0 8.0 0.00 0.00 0.00 36 1007.1
20260504220015 25 348 3.2 16.1 0.00 0.00 0.00 36 1007.2
20260504214537 25 190 1.6 8.0 0.00 0.00 0.00 37 1007.3
20260504213017 25 207 0.0 8.0 0.00 0.00 0.00 38 1007.4
20260504211535 24 307 0.0 6.4 0.00 0.00 0.00 39 1007.5
20260504204533 23 310 3.2 6.4 0.00 0.00 0.00 38 1007.8
20260504203102 23 205 1.6 9.7 0.00 0.00 0.00 40 1007.9
20260504201513 23 16 3.2 12.9 0.00 0.00 0.00 38 1007.9
20260504200043 23 343 1.6 9.7 0.00 0.00 0.00 39 1007.8
20260504194602 23 219 1.6 8.0 0.00 0.00 0.00 40 1007.9
20260504193027 22 172 0.0 14.5 0.00 0.00 0.00 40 1007.9
20260504191558 22 5 3.2 9.7 0.00 0.00 0.00 39 1008.1
20260504190010 22 68 3.2 8.0 0.00 0.00 0.00 40 1008.1
20260504184539 22 194 0.0 8.0 0.00 0.00 0.00 41 1008.1
20260504183004 22 333 3.2 8.0 0.00 0.00 0.00 44 1008.3
20260504181542 22 355 1.6 8.0 0.00 0.00 0.00 46 1008.3
20260504174518 21 341 4.8 16.1 0.00 0.00 0.00 42 1008.4
20260504173046 21 250 0.0 6.4 0.00 0.00 0.00 48 1008.5
20260504171511 20 245 0.0 6.4 0.00 0.00 0.00 43 1008.4
20260504150112 9 184 0.0 0.0 0.00 0.00 0.00 96 1008.9